Regional Weather Roundup
Issued by NWS

Home | Current Version | Previous Version | Text Only | Print | Product List | Glossary On
Versions: 1 2 3 4 5 6 7 8 9 10 11 12 13 14 15 16 17 18 19 20 21 22 23 24 25 26 27 28 29 30 31 32 33 34 35 36 37 38 39 40 41 42 43 44 45 46 47 48 49 50
000
ASUS45 KPSR 011410
RWRAZ

ARIZONA REGIONAL HOURLY WEATHER ROUNDUP
NATIONAL WEATHER SERVICE PHOENIX AZ
700 AM MST WED OCT 01 2014

NOTE: FAIR INDICATES FEW OR NO CLOUDS BELOW 12,000 FEET WITH NO
SIGNIFICANT WEATHER AND/OR OBSTRUCTIONS TO VISIBILITY.

AZZ001>003-036-011500-
NORTHWEST ARIZONA

CITY           SKY/WX    TMP DP  RH WIND       PRES   REMARKS
BULLHEAD CITY  CLEAR     66  37  34 CALM      29.78R
KINGMAN        CLEAR     58  41  53 SE9       29.90R
$$

AZZ004>008-015-016-018-011500-
NORTH CENTRAL ARIZONA

CITY           SKY/WX    TMP DP  RH WIND       PRES   REMARKS
GRAND CANYON   CLEAR     34  33  96 CALM      30.04S
PRESCOTT       CLEAR     48  37  65 CALM      29.99R
FLAGSTAFF      CLEAR     39  34  82 SW3       30.07R
PAYSON         CLEAR     50  39  66 CALM      30.02R
$$

AZZ009>014-017-011500-
NORTHEAST ARIZONA

CITY           SKY/WX    TMP DP  RH WIND       PRES   REMARKS
WINSLOW        CLEAR     52  41  66 CALM      29.99R
SAINT JOHNS    CLEAR     47  33  58 E5        30.02R
WINDOW ROCK    PTCLDY    38  35  89 CALM      30.05R
SHOW LOW       CLEAR     46  28  49 S6        30.08R
$$

AZZ023-011500-
GREATER PHOENIX AREA

CITY           SKY/WX    TMP DP  RH WIND       PRES   REMARKS
PHOENIX        CLEAR     68  52  56 E6        29.79R
BUCKEYE          N/A     59  48  67 N6        29.80R
GLENDALE       CLEAR     66  54  63 CALM      29.82R
LUKE AFB       CLEAR     63  51  66 NW3       29.80R
DEER VALLEY    CLEAR     66  46  48 NE9       29.81R
SCOTTSDALE     CLEAR     66  51  58 CALM      29.83R
MESA-FALCON    CLEAR     64  48  55 N7        29.81R
MESA-GATEWAY   CLEAR     59  52  77 SE6       29.83R
CHANDLER       CLEAR     61  50  67 NE9       29.81R
$$

AZZ027-028-011500-
SOUTHWEST MARICOPA COUNTY AND PINAL COUNTY

CITY           SKY/WX    TMP DP  RH WIND       PRES   REMARKS
CASA GRANDE    CLEAR     63  41  45 CALM      29.82R
GILA BEND      SUNNY     63  50  63 VRB3      29.74
$$

AZZ503-504-507>509-011500-
SOUTHEAST ARIZONA

CITY           SKY/WX    TMP DP  RH WIND       PRES   REMARKS
TUCSON         CLEAR     63  44  50 SE9       29.90R
DAVIS-MONTHAN  CLEAR     61  42  49 SE12      29.89R
RYAN FIELD       N/A     61  46  59 SE3       29.89R
NOGALES        CLEAR     49  41  74 N5        29.96R
SIERRA VISTA   CLEAR     55  39  54 CALM      29.99R
DOUGLAS        CLEAR     50  44  80 CALM      29.97R
SAFFORD        CLEAR     54  38  54 E3        29.90R
$$

AZZ020-021-025-026-031-011500-
SOUTHWEST ARIZONA

CITY           SKY/WX    TMP DP  RH WIND       PRES   REMARKS
YUMA           CLEAR     73  45  36 CALM      29.72R
$$

CAZ031-033-041-043-047-048-061-011500-
SOUTHERN CALIFORNIA

CITY           SKY/WX    TMP DP  RH WIND       PRES   REMARKS
DOWNTOWN L.A.  MOCLDY    66  61  84 CALM      29.80R
L.A. AIRPORT   MOCLDY    64  62  93 E6        29.81R FOG
SAN DIEGO      MOCLDY    66  61  82 S6        29.83R
BURBANK        CLEAR     61  49  64 S3        29.81R
ONTARIO        CLEAR     62  53  72 N5        29.82R
RIVERSIDE      CLEAR     60  53  77 CALM      29.82R
PALM SPRINGS   CLEAR     69  46  43 SE5       29.75R
EL CENTRO NAS  CLEAR     61  43  51 N3        29.72R
IMPERIAL       CLEAR     68  47  46 CALM      29.71R
BLYTHE         CLEAR     68  44  42 N7        29.74R
NEEDLES        CLEAR     68  38  33 W3        29.77R
$$

NVZ020-UTZ003-011500-
SOUTHERN NEVADA-UTAH

CITY           SKY/WX    TMP DP  RH WIND       PRES   REMARKS
LAS VEGAS      PTCLDY    67  38  34 S8        29.83R
SALT LAKE CITY MOCLDY    48  38  68 W3        30.04R
$$

NMZ009-TXZ055-011500-
NEW MEXICO-WEST TEXAS

CITY           SKY/WX    TMP DP  RH WIND       PRES   REMARKS
ALBUQUERQUE    SUNNY     49  34  56 E5        30.00R
EL PASO        SUNNY     64  42  44 CALM      29.92R
$$


........................KEY........................
SKY/WX - SKY CONDITION/WEATHER
TMP    - TEMPERATURE IN FAHRENHEIT
DP     - DEW POINT IN FAHRENHEIT
RH     - RELATIVE HUMIDITY IN PERCENT
WIND   - DIRECTION AND SPEED IN MILES PER HOUR (MPH)
VRB    - VARIABLE WIND DIRECTION
PRES   - MEAN SEA LEVEL PRESSURE IN INCHES OF MERCURY
         F - FALLING PRESSURE   R - RISING PRESSURE
         S - STEADY PRESSURE
VSB    - VISIBILITY IN MILES
HX     - HEAT INDEX IN FAHRENHEIT
WCI    - WIND CHILL INDEX IN FAHRENHEIT
TC     - TEMPERATURE IN CELSIUS WHICH IS ALSO KNOWN AS
         TEMPERATURE IN CENTIGRADE
AFB    - AIR FORCE BASE
         LUKE AFB IS LUKE AIR FORCE BASE
         DAVIS-MONTHAN IS DAVIS-MONTHAN AIR FORCE BASE
NAS    - NAVAL AIR STATION
         EL CENTRO NAS IS EL CENTRO NAVAL AIR STATION
N/A    - NOT AVAILABLE



USA.gov is the U.S. government's official web portal to all federal, state and local government web resources and services.